Wind_Speed
8 9 10 10 11 11 12 13 14 15 16 17 18 19 20 21 22 23 24 24 25 26 27 28 30 31 33 35 37 38 39 40 40 41 41 42 42 43 44 45 45 46 46 45 44 43 41 39 37 35 33 31 28 26 24 22 22 21 19 17 12 7 7 7 6 6 6 8 5 3 4 5 6 7 8 11 14 17 22 25 27 29 30 31 30 29 27 25
11 11 12 12 13 13 13 14 14 15 16 17 18 19 21 22 23 24 25 26 27 27 28 29 30 31 32 34 35 37 39 40 41 41 41 42 43 43 44 45 45 46 47 46 46 45 43 42 39 37 36 33 30 28 26 25 24 23 21 19 15 11 10 9 9 9 8 8 6 2 2 4 5 6 7 9 12 16 20 23 26 28 29 30 30 29 27 25
15 15 15 15 15 15 16 16 16 16 17 17 18 19 20 22 23 25 26 28 29 29 30 30 31 31 32 33 34 36 38 39 41 41 42 42 43 44 44 45 46 47 47 47 47 47 45 44 41 40 38 35 32 30 29 27 25 25 23 22 20 16 12 11 11 11 8 7 6 3 2 3 4 4 6 8 10 14 18 22 24 27 28 29 30 29 28 26
18 18 19 19 19 19 19 19 19 19 19 19 19 20 21 22 23 25 27 28 30 31 31 32 32 33 33 34 34 36 37 39 40 41 42 43 43 44 44 45 45 47 48 48 48 48 47 46 44 42 40 38 35 33 32 29 27 26 26 25 23 20 16 12 12 12 9 7 7 5 5 4 3 2 4 6 9 13 17 20 23 25 27 28 29 29 28 27
19 20 21 22 22 23 23 23 23 23 23 22 22 22 22 22 23 25 26 28 30 31 32 33 34 35 35 35 35 36 37 38 39 41 42 43 43 44 45 45 45 47 48 49 49 48 48 47 46 44 42 41 38 35 34 31 29 28 28 28 25 23 20 15 12 13 11 8 7 6 5 5 4 2 3 5 8 11 15 18 21 23 26 27 28 29 28 27
21 22 23 23 24 25 26 26 27 27 27 27 26 26 25 24 25 25 26 27 29 31 32 34 35 36 36 37 37 37 38 38 39 40 41 42 43 44 45 46 46 47 48 49 49 49 49 48 47 45 44 43 40 37 36 34 32 30 29 29 26 24 22 18 13 12 12 8 8 8 7 7 5 2 1 4 7 10 13 16 20 22 24 25 26 28 28 27
23 24 24 25 25 26 27 27 28 29 29 29 29 29 29 28 27 27 27 28 29 30 32 34 35 36 37 38 39 39 39 39 39 40 41 42 43 44 45 46 47 47 49 50 50 50 50 49 48 47 46 45 42 40 38 36 34 32 31 29 28 26 24 20 14 12 13 10 9 9 8 8 6 2 1 4 6 8 11 14 18 20 22 24 25 26 27 27
25 25 26 26 27 27 28 28 29 30 30 31 31 31 31 31 31 30 30 29 30 30 32 34 35 37 38 39 40 40 41 41 40 41 41 42 43 44 45 46 47 48 49 50 51 51 51 50 49 48 48 47 45 43 41 39 37 35 32 31 30 28 25 21 15 13 15 12 9 8 8 9 6 3 2 4 6 7 9 12 16 18 19 22 24 25 26 26
26 27 27 27 28 28 29 29 30 30 31 31 32 32 32 32 32 32 32 32 32 32 32 34 35 37 38 39 40 42 42 42 42 42 42 43 43 44 45 46 47 48 49 51 52 53 52 51 50 50 50 49 46 44 43 41 39 37 34 33 32 29 26 21 17 15 15 13 11 9 8 8 8 6 3 4 5 6 7 10 14 16 17 20 22 24 25 25
28 28 28 29 29 30 30 31 31 31 32 32 32 33 33 33 33 34 34 34 34 34 34 34 35 37 38 40 40 41 43 43 43 43 44 44 44 45 45 46 46 48 49 51 54 54 52 50 50 51 51 50 48 47 46 44 41 39 37 35 33 31 27 23 19 15 16 15 12 11 10 9 11 10 5 4 5 5 5 8 11 13 15 18 20 22 24 24
30 30 30 30 31 31 32 32 33 33 33 33 33 33 33 33 34 34 35 36 36 36 36 36 36 37 38 39 40 41 42 43 43 44 45 45 46 46 46 46 46 47 49 52 54 54 52 50 51 52 52 52 51 49 48 46 44 42 40 37 35 33 29 27 23 16 15 16 12 13 14 13 13 11 7 6 6 5 4 6 9 11 13 15 18 20 23 23
32 32 32 32 33 33 33 34 34 34 34 34 33 33 33 34 34 35 35 36 37 38 38 38 38 38 39 39 40 40 42 42 43 44 46 47 47 47 48 47 47 47 49 52 54 53 52 51 52 53 53 54 53 52 50 48 46 44 43 40 37 35 32 30 25 17 14 16 13 14 16 15 15 13 10 7 7 6 3 5 7 9 11 13 16 19 21 22
34 34 34 35 35 35 35 35 35 35 35 34 34 34 34 34 34 35 35 36 37 38 39 39 39 39 40 40 40 41 42 42 42 44 46 47 48 49 50 49 49 49 50 51 52 52 52 52 53 53 54 55 55 54 52 50 49 47 45 42 39 37 35 30 24 18 17 19 18 16 16 16 17 16 12 9 9 7 4 3 5 8 9 11 14 17 20 21
36 36 37 37 37 37 37 37 36 36 36 35 35 34 34 34 34 34 35 36 37 38 39 39 40 40 41 42 42 41 42 42 42 44 46 47 49 50 51 51 52 51 51 51 51 51 52 53 53 54 55 57 57 56 55 53 51 49 47 45 42 39 37 30 22 20 21 22 23 22 20 17 18 17 14 12 11 9 5 1 4 6 8 10 11 15 18 20
38 38 38 39 39 38 38 38 37 37 36 35 35 34 34 34 34 34 35 36 37 38 38 39 40 41 42 43 43 43 44 44 43 44 46 47 49 51 52 53 54 53 53 52 51 51 52 54 55 55 57 58 59 57 56 55 53 52 49 48 45 41 40 33 25 23 24 25 26 27 23 19 19 18 15 14 12 10 6 2 2 4 6 8 9 12 16 18
39 39 40 40 40 40 39 38 37 37 36 35 34 34 34 33 33 33 34 35 36 37 38 39 40 41 42 43 44 44 45 45 45 46 46 48 49 51 53 54 55 56 55 54 53 53 53 55 56 56 57 59 60 59 58 58 56 54 52 50 48 44 42 36 30 28 27 27 28 28 25 21 20 20 17 16 14 11 8 4 2 3 4 6 7 10 14 16
40 40 41 41 41 41 40 38 37 36 36 35 34 34 33 33 32 32 33 33 34 35 37 38 40 41 42 42 43 44 45 45 46 47 48 49 50 51 53 54 56 57 57 56 55 55 55 56 57 57 58 61 61 60 61 60 58 57 55 53 51 48 44 41 36 31 28 28 28 29 27 23 22 22 20 17 15 12 9 7 4 3 3 3 5 7 11 14
41 41 42 42 41 41 40 38 37 37 35 34 33 32 32 31 31 31 31 31 32 33 35 36 38 39 40 40 41 42 43 44 45 47 48 50 51 53 54 55 56 58 59 59 57 57 57 58 58 58 59 61 61 61 63 62 60 58 57 56 54 51 47 45 41 33 28 28 29 30 28 25 25 25 22 19 16 14 11 9 6 5 4 2 3 5 8 12
42 42 42 42 42 41 40 38 37 36 35 33 31 30 29 29 29 28 29 29 30 31 32 34 36 37 38 39 39 40 42 43 44 46 48 50 52 54 55 56 57 58 60 61 60 59 59 60 59 58 59 61 63 64 64 63 62 60 59 58 56 53 50 48 46 37 30 28 29 30 29 28 27 27 24 20 18 17 14 11 9 7 6 4 1 2 5 9
43 43 43 42 42 41 39 38 36 35 33 31 29 28 27 26 26 26 27 27 28 29 31 33 34 35 37 38 38 39 40 42 44 45 47 50 52 55 57 58 59 60 61 62 62 61 62 61 60 60 60 63 65 66 66 65 64 62 60 59 57 55 52 50 50 43 33 29 31 32 31 29 28 27 26 22 21 20 16 13 11 10 8 6 3 1 3 6
44 43 43 42 41 40 38 36 34 33 30 28 27 26 24 24 24 24 25 25 27 29 31 32 33 34 36 37 38 39 40 42 44 46 48 50 53 56 58 60 61 62 63 63 63 63 63 63 63 64 64 65 67 67 67 66 66 64 62 61 59 57 55 53 53 49 39 31 32 34 33 31 29 28 27 25 24 23 19 16 14 12 10 8 5 3 1 4
44 43 42 42 40 38 36 34 32 29 27 26 24 23 23 22 22 23 23 24 26 28 31 32 34 34 35 37 38 39 41 42 44 46 48 50 53 56 60 63 65 65 65 65 65 65 66 66 67 68 67 67 68 68 67 67 67 65 64 63 61 60 58 56 55 53 45 35 32 33 33 32 31 29 28 29 28 25 22 19 16 14 12 10 8 6 4 3
44 43 42 40 38 36 33 30 28 26 25 23 22 22 22 21 21 22 23 24 25 27 30 32 34 35 36 37 38 39 40 42 44 46 48 50 53 56 59 64 67 69 70 69 69 68 69 71 72 71 69 68 69 68 67 68 68 67 66 65 63 62 60 58 57 55 50 41 32 32 34 34 34 32 30 31 30 27 24 22 18 17 14 11 11 9 7 4
43 42 40 38 35 32 30 28 25 23 22 21 20 20 20 20 20 21 22 24 26 28 30 33 35 36 37 37 38 40 41 42 44 46 47 48 50 53 57 61 66 71 74 74 74 73 73 74 74 73 71 71 70 69 68 69 70 69 69 67 65 64 62 61 58 56 53 46 37 34 36 36 36 34 33 33 32 28 26 24 20 18 17 14 13 11 9 6
42 40 38 35 32 29 27 25 23 21 20 19 19 19 18 18 20 21 23 25 27 30 32 34 36 38 39 39 39 39 41 43 44 45 45 46 47 49 52 57 62 69 75 78 79 77 77 76 75 74 73 73 72 69 70 71 72 72 71 69 67 66 64 63 60 58 55 50 43 40 38 37 36 35 35 35 33 29 28 27 23 21 20 17 14 12 10 7
41 38 35 32 29 26 24 22 20 19 18 17 16 15 16 17 21 23 25 27 29 32 34 36 38 41 42 43 43 42 41 42 42 43 43 43 43 44 47 52 57 63 71 79 83 82 81 78 77 77 76 75 73 70 71 73 74 73 73 71 69 67 66 65 62 60 57 52 49 46 40 37 36 36 36 36 35 32 30 29 26 24 23 18 15 13 12 10
39 35 32 28 25 23 21 19 17 16 14 13 13 14 16 19 22 25 27 29 31 34 36 38 40 42 45 45 45 44 42 41 40 40 39 39 40 39 41 46 51 56 63 75 85 87 85 83 81 79 78 77 74 72 72 74 75 74 74 73 71 69 68 67 65 62 60 54 51 49 42 37 37 37 37 38 37 35 33 31 28 27 25 20 18 16 14 12
36 32 28 24 21 18 16 14 13 12 12 12 14 16 18 21 24 26 29 32 34 36 38 40 41 43 46 46 44 43 41 39 38 36 35 35 37 37 36 40 45 50 56 66 80 88 89 87 85 82 80 78 76 74 74 74 75 75 75 74 73 72 70 69 67 64 62 57 53 49 44 40 39 40 39 38 37 36 35 33 31 29 27 23 21 19 17 15
33 28 24 20 17 14 13 12 11 12 13 15 17 20 21 23 25 28 31 34 36 38 40 42 43 44 46 46 44 42 39 37 35 35 33 33 35 34 32 34 39 45 51 59 72 85 90 89 88 84 81 80 79 78 76 75 75 76 76 76 75 74 72 70 69 66 64 62 57 52 47 43 42 41 41 38 36 36 36 35 33 30 28 25 23 21 19 18
30 25 20 17 15 13 13 13 14 16 17 19 20 22 23 24 27 29 32 34 37 39 41 42 43 44 45 45 43 41 39 36 34 33 32 32 32 32 30 30 34 40 46 54 65 80 89 91 89 87 84 83 82 80 78 76 76 77 77 77 77 75 73 72 71 68 66 66 63 58 52 48 44 43 42 40 39 39 37 35 33 32 30 28 26 24 23 22
28 22 17 15 15 15 16 17 18 19 19 21 22 24 26 27 29 31 33 35 37 39 41 42 42 42 42 41 41 40 39 37 35 32 31 31 29 28 28 28 30 35 41 49 59 72 85 91 91 91 88 85 82 80 79 77 77 78 78 78 77 76 75 73 72 70 66 67 68 64 60 53 47 45 44 44 45 43 39 36 35 33 32 30 29 28 26 24
25 20 16 15 16 17 19 20 21 21 22 23 24 26 28 29 30 33 34 36 37 39 40 41 41 40 38 37 39 39 39 37 36 33 31 30 26 25 25 24 26 31 37 44 53 65 79 89 92 92 91 87 83 80 79 79 78 80 80 79 77 76 76 75 74 71 68 67 68 67 64 57 52 50 49 48 48 45 41 39 37 35 33 31 30 29 27 26
23 19 17 17 18 19 20 22 22 23 24 25 27 29 30 31 32 34 36 37 38 40 40 40 40 40 36 34 36 38 38 38 36 34 33 30 24 22 21 21 22 28 34 40 49 60 73 86 91 92 91 88 85 81 80 80 80 80 81 81 79 78 77 77 76 73 69 68 66 63 62 59 55 54 53 51 50 48 44 40 36 36 35 33 31 30 29 27
22 19 18 19 20 20 22 23 24 25 26 27 29 30 32 33 34 35 37 38 38 40 40 39 39 39 36 34 34 37 38 38 38 36 35 32 23 19 19 19 20 24 32 38 46 55 67 82 90 91 90 88 86 84 82 83 83 83 83 83 81 80 79 78 78 75 70 68 66 61 61 60 57 55 55 55 54 51 46 40 37 37 36 35 33 31 31 29
22 20 20 20 21 22 23 25 26 27 27 28 30 31 33 34 35 37 38 39 39 40 39 37 38 37 35 34 34 36 37 38 39 38 37 34 24 18 18 18 18 22 30 37 44 52 63 78 88 90 88 87 87 86 85 86 85 84 83 83 83 83 82 80 79 76 70 68 67 63 60 60 57 55 56 58 56 52 48 42 39 39 38 37 36 35 34 33
22 21 21 22 23 23 25 26 27 28 29 29 31 33 34 35 37 38 40 40 40 40 37 35 36 36 34 32 33 35 37 39 39 38 38 36 26 18 18 17 18 21 29 36 42 51 61 74 85 88 87 87 87 86 86 87 86 84 84 85 84 84 83 81 79 77 72 68 68 66 62 59 57 54 53 56 56 52 49 45 42 42 41 39 39 38 37 36
22 22 22 23 24 25 26 27 28 29 30 31 32 34 35 36 38 40 41 42 41 40 37 33 34 35 33 30 31 33 36 39 39 37 38 37 28 19 18 18 18 20 27 34 41 51 61 72 83 88 88 88 87 86 87 88 87 86 86 87 85 84 84 83 80 79 76 71 70 69 65 60 58 55 55 56 55 53 50 48 46 46 43 42 41 40 38 37
22 22 23 24 25 27 28 29 30 31 31 32 33 35 36 37 39 40 42 42 41 40 36 32 32 34 32 29 28 31 34 37 38 37 37 38 32 21 18 18 17 18 24 33 41 51 62 71 81 88 89 88 87 87 89 90 88 87 87 86 85 85 85 84 83 81 79 75 70 68 66 63 60 58 59 59 56 53 51 49 48 48 46 44 43 41 39 38
21 22 23 25 27 28 29 30 31 32 33 33 34 36 37 39 41 42 42 41 40 39 37 32 30 31 32 28 25 28 33 35 36 36 35 37 35 26 18 17 16 16 22 32 41 49 60 71 81 88 90 89 88 88 90 91 89 87 87 85 85 86 87 86 85 82 80 77 72 67 66 65 62 60 61 62 58 54 52 50 49 48 47 46 44 41 38 38
21 23 25 27 29 29 30 31 32 33 34 35 35 37 38 39 42 45 43 40 37 37 37 35 30 29 31 29 23 24 30 33 34 34 34 36 37 31 21 17 15 15 20 29 39 47 58 71 81 88 92 91 90 89 90 91 90 88 87 86 86 87 87 87 85 82 81 80 75 70 67 66 64 62 62 62 58 55 53 52 51 49 47 46 44 41 38 38
22 24 27 29 31 31 31 32 34 35 35 36 36 38 39 40 42 44 43 39 37 36 36 35 31 28 30 29 24 21 26 31 32 32 32 34 37 35 27 19 15 14 18 26 37 45 55 69 82 88 92 93 91 91 91 91 90 89 88 87 87 87 86 85 84 83 82 81 78 73 69 67 65 64 64 62 59 57 56 54 52 50 49 47 46 43 42 41
24 26 29 32 33 33 33 34 35 36 37 37 38 39 39 40 43 43 40 36 36 35 33 33 31 27 28 29 26 20 21 27 30 30 31 32 35 37 32 23 16 14 17 23 33 43 53 67 81 89 92 94 92 91 91 91 91 89 87 86 86 85 83 82 83 83 82 80 77 73 70 69 67 66 66 64 61 59 59 57 55 53 51 51 49 46 45 44
26 29 31 34 35 35 35 36 37 38 39 39 39 39 39 41 43 42 37 34 34 32 30 29 28 26 26 28 27 23 18 20 25 29 30 32 33 36 35 27 18 15 15 21 30 40 51 63 78 89 93 94 93 91 91 92 91 88 86 85 85 84 82 81 82 82 81 80 76 73 72 71 70 69 68 67 64 62 61 60 57 55 54 53 52 48 46 45
30 32 34 36 38 37 37 38 40 40 41 41 40 39 39 40 41 39 34 32 32 30 27 27 25 24 25 27 27 25 19 15 20 27 30 31 31 33 35 32 22 16 15 18 27 38 48 60 74 87 94 95 94 93 92 92 91 89 87 87 86 84 82 81 82 82 81 80 77 75 74 72 70 70 69 69 67 64 63 61 58 58 57 56 54 51 49 47
33 35 37 39 40 39 39 40 42 43 43 43 41 40 39 40 39 36 31 30 30 28 26 26 24 22 25 27 25 25 21 15 15 22 28 29 30 32 33 34 28 18 14 16 24 34 46 57 70 83 92 94 94 94 93 92 91 90 89 88 87 85 83 82 83 83 82 82 80 78 78 74 71 70 69 69 69 65 63 62 60 60 60 58 56 53 51 49
36 38 40 42 42 42 43 43 44 44 45 44 43 40 39 39 36 32 29 28 29 28 26 25 24 23 25 25 23 24 24 18 13 17 24 27 28 31 32 33 32 23 15 15 21 30 42 54 66 79 89 93 93 93 92 91 91 90 89 89 88 87 85 84 84 83 83 83 82 81 80 75 71 71 70 69 69 67 64 63 62 62 61 60 58 56 54 52
39 40 42 44 45 45 45 45 46 46 46 45 44 41 39 37 32 28 27 28 29 27 25 24 24 25 25 23 22 24 25 23 16 14 20 25 26 29 31 31 33 28 18 15 19 27 38 50 62 75 86 92 93 92 91 90 90 90 89 89 88 88 87 85 84 84 84 83 83 82 80 77 72 71 71 71 71 69 65 63 62 62 62 61 60 58 56 55
41 43 44 46 48 48 47 47 48 47 46 46 45 42 38 33 28 26 26 28 29 28 25 24 24 25 25 23 22 23 24 25 21 15 16 21 24 28 30 30 32 32 23 16 18 24 34 46 58 71 82 90 93 92 91 90 90 91 91 89 88 87 87 85 84 85 84 85 86 83 81 79 74 70 71 72 73 73 69 65 63 62 61 60 60 59 58 57
45 46 47 48 50 50 49 49 49 48 47 46 44 41 34 28 25 25 26 28 29 28 26 24 23 25 26 24 22 23 24 26 26 20 15 16 20 24 28 30 31 33 28 18 17 21 30 41 54 66 78 87 93 93 92 91 91 91 91 90 88 87 87 86 85 85 86 87 87 85 83 81 77 72 69 70 74 76 73 70 66 63 61 60 60 60 59 58
48 48 49 49 51 51 51 50 50 49 47 43 41 35 28 24 24 24 25 27 28 29 28 25 23 23 26 25 23 24 25 28 30 26 17 13 17 20 25 28 29 32 31 22 16 19 26 36 48 61 73 84 91 94 93 92 92 92 91 90 89 88 87 87 85 86 87 87 87 87 86 84 81 76 70 67 71 75 75 73 69 66 63 61 60 61 60 60
50 50 50 50 51 52 52 50 49 47 41 36 33 27 23 23 24 24 24 25 27 29 29 27 24 23 25 26 24 24 27 29 30 26 18 14 15 18 21 26 28 30 32 25 16 17 22 31 43 55 68 80 89 94 94 93 93 93 93 92 90 89 88 88 87 87 87 86 85 86 86 85 84 81 75 69 69 73 76 73 71 68 65 62 61 61 62 62
51 51 51 50 50 50 50 47 42 37 30 26 23 22 21 23 23 23 24 25 26 29 30 28 26 25 25 26 24 24 27 28 28 25 20 17 15 17 20 24 26 28 32 28 18 15 20 28 38 49 62 75 86 93 95 95 95 94 94 93 92 91 90 89 88 87 86 86 86 85 83 83 84 84 81 75 69 71 76 76 73 70 67 64 63 62 62 63
Wind_Direction
294 288 284 280 276 272 268 265 261 258 255 253 251 250 250 249 248 247 246 244 242 239 237 235 235 236 236 237 237 237 236 234 233 232 231 230 228 228 230 230 229 229 228 228 228 229 230 229 229 228 227 225 224 224 224 224 220 216 211 210 206 194 201 201 220 244 249 251 258 295 307 318 339 342 351 17 21 19 24 23 21 24 28 31 30 27 27 28
304 299 295 290 287 282 279 275 271 267 264 260 256 253 251 249 248 247 246 245 244 243 241 239 237 236 236 236 236 237 236 235 234 233 231 231 229 228 229 230 229 229 228 228 227 228 229 229 229 228 227 225 223 222 222 223 222 217 213 211 204 194 196 197 213 234 245 257 262 265 293 306 325 340 348 10 19 19 26 26 22 24 28 31 30 28 27 28
310 307 304 300 296 292 288 284 280 276 273 269 265 261 257 253 250 248 246 245 244 243 243 242 241 239 238 237 236 236 236 236 235 234 232 231 230 228 229 230 229 229 228 228 227 227 228 228 228 228 227 224 222 221 219 220 221 218 215 212 209 208 206 196 209 228 234 245 249 256 288 299 309 331 341 2 20 19 26 29 25 24 27 30 31 30 28 28
310 309 307 304 302 300 296 292 289 284 280 276 273 269 265 261 257 252 249 246 245 243 243 242 242 241 241 239 238 237 237 236 235 234 233 232 231 229 228 229 229 229 228 227 227 227 227 228 227 227 227 224 221 221 219 218 220 219 216 215 213 216 218 210 211 219 221 226 238 267 289 280 269 299 332 356 19 20 25 31 29 25 26 30 31 31 29 29
306 305 304 303 302 301 299 298 295 292 288 284 280 276 272 268 264 260 255 251 247 245 243 242 241 241 241 241 240 239 238 238 236 235 234 233 232 231 229 228 228 229 229 228 227 226 227 227 227 226 227 225 221 220 220 217 218 219 218 218 215 215 223 226 224 225 222 218 225 244 254 242 235 257 324 351 14 21 24 30 33 27 26 30 31 32 31 30
303 302 301 300 299 299 298 297 296 294 292 289 287 283 279 274 270 266 261 257 252 248 245 243 242 241 240 240 240 240 239 239 238 237 236 234 232 232 231 229 228 228 229 228 227 225 225 226 226 226 226 225 221 220 220 218 217 218 218 219 217 216 223 228 234 234 218 208 220 227 222 213 210 213 317 345 4 20 24 29 35 30 26 29 31 32 32 30
302 301 301 299 298 297 296 295 294 293 291 290 288 286 283 280 275 271 267 263 258 253 249 246 244 242 240 239 239 239 239 239 239 238 237 235 233 232 231 230 228 228 228 228 227 225 224 225 225 226 226 225 222 219 219 218 216 217 218 219 218 219 223 225 229 225 205 199 218 229 218 203 198 197 307 337 350 14 27 29 34 32 28 30 32 32 32 31
302 301 300 300 299 297 296 295 293 291 290 288 287 285 284 281 279 276 272 268 264 259 254 250 247 244 241 240 239 238 237 238 238 238 238 237 235 233 231 231 229 228 228 228 227 225 224 223 224 224 225 225 222 219 218 218 216 216 217 218 218 219 222 223 222 215 202 196 208 221 210 196 198 215 281 325 333 360 27 30 32 33 29 30 32 32 33 32
301 301 300 300 299 298 297 295 294 292 290 288 286 284 282 280 279 277 275 272 268 264 259 255 251 247 244 241 240 238 237 237 237 238 239 238 237 235 233 231 230 229 228 228 228 226 223 223 223 223 224 224 223 220 218 217 216 215 215 216 217 218 219 218 214 211 204 197 202 212 201 186 192 215 260 305 315 339 20 32 32 31 29 31 33 33 34 34
301 301 301 300 299 299 298 296 295 293 291 288 286 283 281 279 277 276 274 272 270 268 264 260 256 252 249 245 242 240 238 236 236 237 238 238 238 236 235 233 231 230 228 228 228 226 223 222 223 223 222 222 222 221 218 216 215 215 214 215 216 215 216 213 208 207 206 204 207 207 199 191 196 207 237 273 294 318 4 30 31 29 27 31 35 34 35 36
301 301 301 301 300 299 298 297 296 294 292 289 287 284 281 278 276 275 273 271 270 268 266 264 261 257 253 250 246 243 240 237 235 236 236 236 237 237 236 234 232 231 229 229 228 227 223 221 222 222 222 221 221 220 218 215 213 214 214 214 215 213 213 214 209 208 216 216 208 197 196 205 209 210 221 244 270 294 343 27 29 25 25 30 36 36 35 37
301 301 301 301 301 300 299 298 297 295 293 291 288 285 282 279 276 274 273 271 269 267 266 264 263 260 257 254 251 247 244 238 234 235 235 234 235 236 236 235 233 231 231 229 229 227 223 220 221 222 222 221 220 220 218 215 212 213 213 213 214 211 212 214 212 215 226 223 207 189 194 206 214 216 220 232 252 270 311 20 23 19 23 29 36 38 36 38
301 302 302 302 301 301 300 299 298 296 294 292 289 285 282 279 277 274 272 270 268 267 265 264 263 261 259 257 254 251 248 243 236 235 236 234 233 234 235 234 233 231 231 230 229 227 224 221 220 221 221 220 219 219 218 215 212 212 212 213 213 210 210 211 212 215 217 216 208 197 198 204 208 214 221 228 239 253 279 8 16 14 18 26 35 40 38 37
302 303 303 303 302 302 301 300 299 297 295 292 290 287 283 280 277 274 272 270 268 266 265 264 263 261 260 258 256 253 252 248 241 237 237 236 234 232 233 234 233 231 231 231 229 228 225 221 219 219 220 220 219 218 217 216 212 211 210 212 212 209 209 207 207 211 208 208 208 206 206 205 205 210 220 225 229 240 253 317 10 6 12 23 33 42 41 38
303 304 304 304 304 303 302 301 300 298 295 293 290 287 284 281 277 274 272 269 267 265 264 263 262 260 259 258 257 255 253 251 247 242 239 238 236 234 232 232 233 232 230 230 229 228 226 222 219 219 219 220 219 217 216 216 212 210 209 211 211 209 207 203 202 206 204 204 206 209 208 204 203 207 217 221 220 229 239 260 349 353 2 20 29 41 45 41
305 305 305 305 305 304 303 302 301 298 295 293 291 288 285 281 278 274 272 269 267 265 263 262 260 259 258 257 257 255 254 253 251 248 244 241 239 238 234 231 231 231 230 228 228 228 227 224 220 218 219 219 219 216 216 215 212 209 208 209 210 208 205 200 201 203 201 200 202 206 206 204 204 205 211 213 212 223 230 242 289 327 344 16 27 37 47 45
306 306 306 306 306 306 305 303 301 299 296 294 291 288 285 281 278 275 272 269 268 266 264 262 260 259 257 257 257 256 255 253 252 250 248 245 242 240 238 234 231 230 229 227 226 226 226 225 221 218 218 219 218 216 215 214 212 210 207 208 209 208 203 198 201 202 197 199 200 203 205 205 205 203 207 209 207 217 223 230 253 281 305 4 27 34 47 49
308 308 308 308 308 307 306 305 302 299 296 294 291 287 284 281 278 275 273 270 269 266 265 263 262 261 259 257 257 257 255 254 253 251 250 248 245 243 241 238 234 230 228 226 225 224 225 226 223 218 218 219 217 215 215 213 212 210 208 208 207 207 204 198 201 202 196 198 200 203 207 206 206 203 206 213 211 213 218 224 242 264 273 308 21 33 48 54
310 310 310 310 309 308 307 305 303 300 297 294 291 288 285 282 279 277 274 272 270 268 266 265 264 264 263 260 259 260 258 256 255 253 251 249 248 246 243 240 237 232 228 225 223 222 223 226 225 220 219 219 217 214 214 213 211 210 208 208 207 206 204 200 201 202 198 199 198 202 208 205 204 203 205 215 217 212 215 218 233 254 257 259 290 43 49 58
311 312 311 311 309 308 308 306 303 300 298 295 292 288 285 282 280 278 276 273 271 270 268 268 268 268 267 265 262 262 261 259 258 256 253 251 250 248 245 242 239 235 230 225 221 220 222 224 224 222 220 219 217 214 212 212 210 209 208 208 207 206 205 201 201 201 200 202 200 200 205 203 203 206 207 214 216 213 213 215 224 240 245 241 230 140 57 64
313 313 312 311 310 309 308 306 303 301 300 296 292 288 284 282 280 277 274 272 271 272 272 271 271 271 271 271 268 267 265 263 261 259 257 254 252 251 248 245 241 237 232 226 221 218 218 219 220 220 220 220 218 214 212 211 210 209 207 207 207 206 205 203 201 201 200 203 206 204 204 204 205 206 205 207 213 214 212 214 219 228 234 232 218 194 129 77
313 313 313 312 311 310 309 306 304 303 300 296 291 288 285 282 278 274 271 270 271 274 276 277 276 275 273 273 272 271 270 269 266 264 261 258 254 251 249 247 244 239 234 229 223 217 214 214 216 217 219 220 218 214 211 211 210 208 207 207 207 206 206 204 202 202 201 202 208 208 205 205 205 203 201 205 213 215 211 212 218 222 225 222 212 198 180 130
314 314 314 313 312 311 308 306 305 303 299 295 291 287 284 280 275 273 272 273 276 279 282 284 283 281 279 278 277 275 273 273 271 269 266 262 258 253 249 245 243 240 235 230 225 219 214 212 213 215 217 220 218 214 211 210 209 207 207 207 206 206 206 205 203 202 201 202 205 207 205 203 203 201 201 207 214 213 210 211 218 223 221 215 211 203 190 165
315 316 315 313 312 311 308 306 305 302 298 293 290 287 283 280 276 276 279 283 286 288 289 290 290 289 287 285 284 284 282 279 278 275 271 267 263 258 252 246 241 237 234 231 226 221 216 213 213 214 217 219 219 214 211 209 208 207 206 206 206 206 206 205 204 202 200 200 202 205 205 205 205 204 204 209 214 212 209 211 216 220 217 212 211 207 195 174
316 316 315 314 312 310 307 306 304 300 295 291 288 285 283 282 283 287 290 293 295 295 296 297 298 297 294 291 290 291 290 286 282 278 274 270 266 263 258 251 242 235 231 228 226 222 218 214 212 212 215 219 219 215 211 209 208 206 206 206 206 206 206 206 205 202 199 198 202 206 206 206 206 206 207 210 214 212 210 212 214 213 213 212 210 210 203 184
317 317 315 313 311 309 308 306 302 297 294 291 287 284 284 287 292 296 298 299 301 303 304 306 308 307 305 302 299 297 294 289 284 279 276 272 270 268 262 254 245 236 228 224 223 221 218 215 212 210 211 215 218 215 212 209 207 206 205 205 206 205 206 206 205 203 199 198 202 208 206 203 204 205 207 211 213 212 210 213 213 208 209 211 208 208 205 194
317 316 314 312 310 310 308 305 301 298 295 290 287 287 291 295 298 301 303 305 308 311 312 313 315 314 312 310 306 303 299 293 288 282 279 277 276 272 263 253 246 238 229 222 219 218 216 214 212 210 208 211 214 215 214 210 207 206 205 204 205 205 206 206 205 202 199 198 201 206 205 202 204 205 207 210 211 210 210 213 212 206 206 209 209 207 203 199
317 315 312 310 310 309 307 307 306 303 298 295 294 295 298 301 303 306 309 311 314 315 316 318 319 318 317 314 311 307 303 299 294 288 284 283 282 277 264 253 246 238 230 223 218 216 214 212 212 210 207 208 209 211 213 211 207 205 204 204 205 205 205 206 206 203 199 198 198 200 201 201 204 207 208 209 210 209 209 211 210 206 205 208 211 209 201 198
316 313 308 307 307 305 306 310 308 305 304 303 302 302 303 305 307 310 313 316 317 317 319 321 321 322 321 317 315 313 309 306 303 298 294 292 288 280 268 257 247 238 230 222 217 214 213 211 211 210 208 206 206 208 212 211 207 205 204 204 204 205 205 205 206 203 200 199 198 196 196 197 200 206 209 207 209 211 211 210 210 209 207 209 212 213 204 198
314 308 303 302 301 300 304 307 306 307 308 307 306 305 307 309 311 314 316 317 319 319 320 322 323 324 323 321 319 318 316 315 312 307 304 302 293 281 272 263 250 239 230 222 216 213 211 210 209 209 208 207 205 206 210 210 207 206 204 204 204 204 205 205 206 204 201 200 200 197 194 194 196 203 206 205 206 210 208 209 213 212 210 209 212 216 209 199
310 302 296 294 294 298 303 306 307 309 310 309 309 308 309 312 314 316 317 319 319 320 320 321 323 325 324 323 323 323 323 322 320 315 313 311 297 281 276 268 253 239 229 222 216 212 210 208 208 208 208 207 204 204 208 210 207 206 205 204 204 204 204 205 205 205 202 201 202 201 198 197 199 203 204 203 206 207 205 210 218 217 213 211 211 216 212 202
304 293 287 286 290 296 301 305 307 309 310 310 309 309 311 315 317 317 318 320 320 319 320 321 322 324 323 324 326 327 327 327 326 323 322 318 301 283 279 273 256 238 227 221 216 211 209 207 206 207 207 205 203 202 204 208 208 206 204 203 204 203 204 205 205 205 203 202 203 204 204 202 202 204 205 205 206 208 208 212 218 219 215 213 213 214 212 206
298 285 279 280 285 293 298 302 305 308 310 310 310 311 313 316 318 318 318 320 319 318 320 321 321 321 322 324 328 331 331 331 332 329 329 327 308 288 284 277 259 238 225 218 214 210 207 206 205 206 206 204 202 201 202 205 207 206 205 203 203 202 203 204 205 204 203 202 202 203 204 202 200 203 206 207 208 209 210 211 214 216 213 213 214 213 212 211
291 277 273 276 282 290 296 300 304 307 309 311 311 312 314 317 319 318 318 320 319 318 320 321 320 320 321 325 330 334 334 335 337 336 335 335 320 296 289 280 261 238 224 216 211 208 206 204 204 205 205 203 202 200 200 203 205 206 205 204 202 201 201 203 204 203 203 201 199 199 200 198 197 201 206 209 210 211 212 211 212 214 211 211 213 212 210 211
285 271 270 274 281 288 294 298 302 306 309 311 312 313 315 317 318 319 318 319 317 317 320 320 318 319 320 326 333 337 338 339 341 341 340 340 330 306 295 282 262 239 223 214 208 206 205 203 203 203 204 202 202 200 199 202 204 204 205 204 202 201 200 201 203 203 202 201 199 199 198 196 197 200 204 209 210 211 213 212 211 213 211 210 212 212 211 209
280 269 268 273 280 287 292 296 301 306 308 310 312 313 316 317 318 318 317 317 316 316 318 318 316 316 318 327 334 338 342 341 342 345 345 343 336 314 299 285 264 241 224 214 207 204 203 202 201 202 202 202 202 200 199 201 203 203 204 205 203 201 200 200 202 202 202 201 200 200 200 198 198 200 204 208 209 210 212 212 210 212 212 211 211 213 213 212
276 268 268 273 280 286 291 297 302 306 308 311 312 313 316 317 317 318 316 316 315 314 316 316 314 313 316 325 333 338 343 342 341 346 348 347 341 322 305 292 271 246 226 215 208 204 201 200 199 200 201 202 201 200 199 201 202 203 204 204 203 202 200 200 201 202 201 200 200 201 201 201 201 202 206 209 209 210 212 212 210 210 212 214 214 213 214 215
273 268 269 274 281 287 293 299 302 306 309 311 312 313 316 316 316 316 315 314 313 312 313 313 311 310 313 322 331 337 341 341 341 345 350 350 346 332 314 301 281 254 230 216 211 206 201 198 198 198 199 201 201 200 200 201 202 203 203 203 203 203 201 200 200 201 200 200 199 200 200 202 202 203 207 210 209 208 209 209 209 209 212 215 216 214 213 217
271 269 272 277 283 289 294 299 303 306 309 310 312 313 315 315 315 314 315 313 310 309 309 310 308 307 309 316 327 336 337 338 340 344 349 353 350 342 323 307 289 261 235 218 212 208 201 197 197 197 198 200 200 200 201 201 201 203 203 202 203 203 202 200 200 201 200 199 199 197 198 201 201 202 207 210 208 205 206 206 207 209 211 214 215 215 214 217
270 271 275 280 285 290 295 299 303 305 308 309 311 312 313 315 314 314 315 312 308 306 306 308 307 305 307 312 323 332 334 335 338 342 348 354 354 348 334 313 295 268 242 223 214 209 203 198 196 197 198 199 199 200 201 201 201 202 203 202 202 203 202 201 200 200 200 200 199 197 197 200 201 201 205 208 206 203 203 205 206 208 210 213 215 215 215 218
272 273 278 282 286 291 295 299 302 304 306 308 310 311 312 313 313 314 314 311 307 306 306 308 308 304 305 311 316 326 332 333 336 341 348 354 356 353 343 324 302 274 247 228 217 210 205 200 197 197 198 199 199 199 200 201 201 202 202 202 203 203 203 202 201 201 200 200 200 198 198 200 201 201 204 206 203 202 203 204 205 205 207 211 213 214 214 216
274 276 280 284 287 292 296 300 302 303 305 307 308 309 311 313 313 313 312 309 306 309 311 311 310 304 303 307 309 316 328 331 334 340 347 353 356 356 351 336 311 280 250 232 220 212 207 203 199 197 198 199 199 199 200 201 202 201 202 202 203 203 203 202 202 202 201 200 200 198 198 201 203 203 205 205 202 201 203 204 204 203 204 209 212 214 215 216
277 280 283 285 288 293 297 299 301 301 303 305 307 309 311 313 312 311 310 306 306 312 316 316 313 306 300 301 302 307 320 331 336 340 345 351 354 356 355 346 323 292 258 235 223 214 208 206 201 198 199 199 199 199 200 201 202 201 201 202 203 202 202 203 203 203 202 201 200 198 197 201 204 205 206 207 205 204 205 205 204 201 203 207 210 213 215 218
281 283 284 285 289 294 297 298 298 300 302 303 306 309 311 312 312 309 306 305 307 314 319 318 315 307 296 295 298 301 310 329 340 339 340 346 351 354 356 353 337 305 270 241 226 217 210 207 204 201 200 199 199 199 200 201 201 200 200 202 202 201 201 202 203 204 203 201 199 198 198 200 203 205 207 209 208 208 208 207 205 202 203 206 209 212 214 216
283 285 285 287 290 294 295 296 297 299 300 302 305 308 310 310 309 304 302 304 307 312 319 318 316 305 293 295 300 298 301 319 339 338 334 338 347 350 354 356 347 321 282 249 230 221 213 208 206 204 202 200 200 200 200 200 201 201 200 201 201 201 201 201 202 203 202 201 199 198 199 201 203 205 207 209 209 208 207 207 205 204 205 206 209 211 213 215
283 285 286 288 291 293 294 296 297 298 299 301 303 305 307 307 303 298 298 300 302 308 314 316 315 307 297 300 303 296 296 306 326 339 332 332 342 347 349 354 352 336 299 257 235 224 217 211 208 205 203 202 201 201 200 200 201 201 201 201 201 201 201 201 201 202 202 202 199 199 200 201 203 205 207 209 209 207 206 206 205 205 206 207 209 211 213 213
283 285 286 289 291 292 294 295 296 297 298 300 301 303 304 302 296 292 294 295 298 304 310 311 312 308 305 308 306 297 295 300 310 334 333 328 337 343 344 350 353 345 319 271 242 227 219 214 210 207 204 203 202 202 201 200 201 202 202 202 202 202 201 201 201 202 202 202 200 200 200 200 203 206 208 210 211 207 206 207 207 207 207 207 209 211 212 212
283 284 285 287 289 290 293 294 294 296 297 298 299 300 299 295 289 287 290 292 297 304 307 307 307 306 307 311 311 304 298 297 303 321 330 327 333 338 339 343 349 348 334 292 253 233 223 216 212 209 206 204 203 203 202 200 201 203 203 202 202 203 202 201 201 202 202 202 202 200 200 200 201 205 208 212 213 211 209 210 211 211 210 210 210 210 212 213
282 284 285 287 288 290 292 293 294 295 295 296 297 296 293 287 282 284 288 291 297 302 304 305 305 303 304 308 312 309 301 298 302 306 315 326 330 332 335 338 342 346 341 313 267 242 228 220 215 210 208 206 204 203 202 201 201 203 204 203 202 203 203 202 202 202 202 203 203 202 201 201 201 203 207 212 215 214 213 214 215 215 214 212 212 211 212 214
283 284 286 287 289 290 292 293 293 294 295 295 294 290 284 279 278 283 288 292 296 298 300 306 307 302 301 304 309 307 303 305 307 303 301 317 326 326 331 335 336 341 342 328 284 250 231 224 218 213 210 208 205 203 203 201 201 203 204 204 203 203 204 203 202 203 203 203 203 203 204 203 202 202 204 210 215 215 215 215 216 215 215 214 214 213 213 214
283 285 286 288 289 291 292 293 293 293 293 291 287 282 276 275 279 284 288 291 294 294 298 306 307 302 299 301 305 304 302 309 313 306 296 305 318 323 328 333 333 335 340 336 302 259 236 225 221 216 212 209 207 205 203 202 202 203 204 204 204 204 204 204 203 204 204 204 204 205 206 205 205 204 204 208 214 216 215 214 215 215 214 213 213 214 214 214
283 285 286 288 289 290 291 291 292 291 289 284 278 275 275 277 282 286 288 290 290 292 298 303 303 301 300 299 302 302 302 308 314 309 300 300 311 319 324 330 331 331 337 339 320 271 242 227 222 219 215 211 209 207 205 203 203 203 204 204 204 204 204 205 204 204 204 204 205 206 206 207 208 207 207 208 212 216 216 214 214 215 215 213 212 213 214 215
Height
10940 10939 10939 10939 10938 10938 10938 10937 10937 10937 10936 10936 10936 10935 10935 10935 10935 10935 10934 10934 10934 10934 10934 10935 10935 10936 10936 10937 10938 10939 10941 10943 10945 10947 10950 10952 10955 10957 10958 10960 10962 10965 10967 10969 10971 10973 10975 10977 10979 10981 10983 10986 10989 10991 10992 10994 10995 10996 10998 10999 11000 11000 11001 11001 11001 11001 11001 11001 11001 11000 11000 10999 10998 10997 10996 10995 10994 10993 10991 10989 10987 10985 10982 10980 10978 10976 10973 10971
10938 10938 10937 10937 10936 10936 10936 10935 10935 10934 10934 10934 10933 10933 10933 10932 10932 10932 10932 10931 10931 10931 10932 10932 10932 10932 10933 10934 10935 10936 10937 10939 10941 10943 10946 10948 10951 10953 10954 10956 10959 10961 10963 10965 10968 10970 10972 10974 10977 10979 10981 10984 10987 10989 10991 10992 10993 10995 10996 10998 10999 11000 11000 11001 11001 11001 11001 11001 11001 11001 11000 11000 10999 10998 10997 10996 10996 10994 10992 10990 10988 10986 10983 10981 10979 10977 10975 10973
10937 10936 10935 10935 10934 10934 10933 10933 10932 10932 10931 10931 10931 10930 10930 10930 10929 10929 10929 10928 10928 10929 10929 10929 10929 10929 10930 10930 10931 10932 10934 10935 10937 10939 10941 10944 10946 10949 10950 10952 10955 10957 10959 10962 10964 10967 10969 10971 10974 10976 10978 10981 10984 10987 10988 10989 10992 10994 10995 10996 10997 10998 10999 11000 11000 11000 11000 11001 11001 11001 11001 11000 10999 10998 10997 10997 10996 10995 10993 10991 10990 10987 10985 10983 10981 10979 10977 10975
10935 10934 10933 10933 10932 10931 10930 10930 10929 10929 10928 10928 10928 10927 10927 10926 10926 10926 10926 10925 10925 10926 10926 10926 10926 10927 10927 10928 10928 10929 10930 10931 10933 10935 10937 10940 10942 10944 10947 10948 10951 10953 10955 10958 10960 10963 10966 10968 10970 10973 10975 10978 10982 10984 10986 10988 10990 10992 10994 10995 10996 10997 10998 10999 10999 11000 11000 11001 11001 11001 11001 11001 11000 10999 10998 10998 10997 10996 10995 10993 10991 10989 10987 10984 10983 10981 10979 10977
10933 10932 10931 10930 10930 10929 10928 10927 10926 10926 10925 10924 10924 10923 10923 10923 10922 10922 10922 10922 10922 10922 10922 10923 10923 10923 10924 10925 10925 10926 10926 10928 10930 10932 10934 10936 10938 10940 10942 10945 10947 10948 10950 10953 10956 10959 10962 10964 10967 10970 10972 10975 10979 10981 10984 10986 10988 10990 10992 10993 10995 10997 10998 10998 10999 10999 11000 11001 11001 11002 11002 11001 11000 10999 10999 10998 10998 10997 10996 10994 10992 10990 10988 10986 10984 10982 10981 10979
10931 10930 10929 10928 10927 10926 10925 10924 10923 10922 10921 10921 10920 10919 10919 10919 10919 10918 10918 10918 10918 10918 10918 10919 10919 10920 10920 10921 10922 10922 10923 10925 10926 10928 10929 10931 10934 10935 10937 10940 10942 10944 10946 10948 10951 10955 10958 10960 10964 10967 10969 10971 10976 10979 10981 10984 10986 10988 10990 10992 10995 10996 10997 10998 10999 11000 11000 11001 11001 11002 11002 11001 11000 11000 10999 10998 10998 10998 10997 10995 10994 10992 10990 10988 10986 10984 10982 10981
10929 10928 10927 10926 10925 10924 10923 10921 10920 10919 10918 10917 10916 10915 10915 10915 10914 10914 10914 10913 10913 10914 10914 10915 10915 10915 10916 10917 10918 10919 10920 10921 10922 10924 10925 10927 10929 10931 10933 10935 10937 10940 10941 10944 10946 10950 10953 10957 10960 10963 10966 10968 10973 10976 10978 10981 10983 10985 10988 10991 10993 10994 10995 10997 10998 10999 11000 11000 11001 11002 11002 11001 11001 11000 10999 10999 10998 10998 10998 10997 10995 10994 10992 10990 10988 10986 10984 10983
10926 10925 10924 10923 10922 10921 10920 10918 10917 10916 10915 10913 10912 10911 10911 10910 10910 10909 10909 10909 10909 10909 10909 10910 10910 10911 10911 10912 10913 10915 10916 10917 10919 10920 10921 10922 10924 10926 10928 10930 10932 10935 10937 10939 10941 10944 10949 10953 10956 10959 10962 10965 10968 10971 10974 10978 10980 10983 10986 10988 10990 10992 10994 10996 10997 10998 10999 11000 11000 11001 11001 11001 11001 11001 11000 10999 10999 10999 10999 10998 10996 10995 10994 10992 10990 10988 10986 10984
10923 10922 10921 10920 10919 10918 10916 10915 10914 10912 10911 10909 10908 10907 10907 10906 10905 10905 10904 10904 10904 10904 10904 10905 10905 10906 10906 10908 10909 10910 10912 10914 10915 10916 10917 10918 10920 10921 10924 10925 10928 10930 10932 10934 10936 10939 10945 10949 10952 10955 10958 10961 10965 10968 10972 10975 10978 10981 10983 10985 10988 10991 10993 10995 10996 10997 10998 10999 11000 11001 11001 11001 11002 11001 11000 10999 10999 10999 10999 10999 10997 10996 10995 10993 10991 10990 10988 10987
10921 10919 10918 10917 10915 10914 10913 10911 10910 10908 10907 10905 10904 10903 10902 10901 10901 10900 10900 10899 10899 10899 10899 10900 10900 10901 10901 10903 10904 10905 10907 10909 10912 10912 10913 10914 10915 10917 10919 10921 10923 10925 10927 10929 10930 10934 10941 10946 10948 10950 10953 10958 10961 10964 10967 10972 10976 10979 10980 10983 10986 10989 10991 10994 10995 10997 10998 10999 10999 11000 11001 11001 11001 11001 11000 10999 10999 11000 11000 11000 10999 10997 10997 10995 10993 10992 10991 10989
10918 10916 10915 10913 10912 10911 10909 10907 10906 10904 10902 10901 10900 10898 10897 10897 10896 10895 10895 10894 10894 10894 10894 10895 10895 10895 10896 10897 10899 10900 10901 10905 10907 10907 10908 10909 10910 10912 10913 10916 10918 10920 10921 10923 10924 10930 10938 10942 10943 10945 10950 10953 10956 10959 10963 10968 10972 10975 10977 10980 10983 10987 10989 10992 10994 10996 10997 10998 10999 10999 11000 11000 11001 11001 11000 10999 10999 11000 11000 11001 11000 10999 10998 10997 10995 10994 10993 10991
10914 10913 10911 10910 10908 10907 10905 10903 10901 10899 10898 10896 10895 10894 10893 10892 10891 10891 10890 10889 10889 10888 10889 10889 10890 10890 10891 10892 10893 10894 10895 10899 10902 10902 10902 10904 10905 10906 10908 10910 10913 10914 10916 10917 10920 10927 10933 10937 10939 10942 10945 10948 10950 10954 10958 10964 10969 10972 10974 10978 10981 10984 10987 10990 10993 10996 10997 10997 10998 10999 10999 11000 11000 11000 11000 10999 10999 10999 11000 11001 11001 11000 10999 10998 10997 10996 10994 10993
10910 10909 10907 10906 10904 10902 10901 10899 10897 10895 10893 10891 10890 10889 10888 10887 10886 10885 10885 10884 10883 10883 10883 10883 10884 10884 10885 10886 10887 10888 10889 10892 10896 10896 10896 10898 10900 10901 10902 10904 10907 10909 10910 10912 10917 10922 10927 10931 10935 10937 10939 10942 10945 10950 10954 10959 10965 10968 10972 10975 10979 10982 10984 10987 10992 10996 10997 10997 10998 10998 10998 10998 10999 11000 10999 10999 10999 10999 11000 11001 11001 11001 11000 10999 10998 10997 10996 10995
10906 10905 10903 10901 10899 10898 10896 10894 10892 10890 10888 10886 10885 10883 10883 10882 10881 10881 10880 10879 10878 10878 10878 10878 10879 10879 10879 10880 10881 10883 10883 10886 10889 10890 10890 10892 10894 10895 10897 10898 10900 10903 10905 10908 10913 10916 10921 10926 10930 10931 10933 10936 10940 10945 10950 10954 10960 10965 10969 10971 10975 10979 10982 10986 10990 10993 10995 10996 10997 10997 10997 10997 10998 10999 10999 10999 10999 10999 11000 11001 11001 11001 11001 11000 10999 10998 10997 10996
10902 10900 10898 10896 10894 10892 10891 10889 10887 10885 10883 10881 10880 10878 10877 10877 10876 10875 10874 10873 10873 10872 10872 10873 10873 10873 10873 10873 10875 10877 10877 10879 10882 10884 10885 10886 10887 10889 10891 10892 10894 10897 10900 10904 10908 10911 10915 10920 10923 10926 10928 10931 10935 10940 10945 10949 10955 10961 10964 10967 10971 10976 10979 10983 10986 10988 10992 10994 10994 10995 10996 10996 10997 10998 10999 10999 10999 10999 10999 11001 11001 11001 11001 11000 11000 10999 10998 10998
10898 10896 10894 10892 10889 10887 10885 10883 10881 10879 10877 10876 10874 10873 10872 10871 10871 10870 10869 10868 10867 10867 10867 10867 10867 10867 10867 10867 10869 10870 10871 10873 10875 10877 10878 10879 10880 10882 10884 10886 10888 10890 10894 10899 10902 10906 10909 10912 10917 10921 10923 10925 10929 10935 10939 10943 10950 10955 10960 10963 10967 10972 10976 10980 10983 10984 10988 10991 10992 10993 10994 10995 10996 10997 10998 10998 10998 10998 10999 11000 11001 11001 11001 11001 11001 11000 10999 10999
10894 10891 10889 10887 10885 10882 10880 10878 10876 10874 10872 10871 10869 10868 10866 10866 10865 10865 10864 10863 10862 10861 10861 10861 10860 10861 10861 10862 10863 10863 10865 10866 10868 10869 10870 10872 10873 10875 10876 10879 10881 10884 10888 10892 10896 10900 10903 10906 10911 10916 10917 10919 10924 10929 10932 10937 10944 10950 10955 10959 10963 10968 10973 10977 10979 10982 10985 10988 10990 10991 10992 10993 10994 10996 10997 10998 10998 10998 10998 10999 11001 11001 11001 11001 11002 11001 11000 11000
10889 10887 10884 10882 10880 10877 10875 10873 10870 10868 10867 10865 10864 10862 10861 10860 10860 10859 10859 10858 10857 10856 10855 10855 10854 10854 10855 10856 10857 10857 10858 10860 10861 10862 10863 10864 10865 10867 10868 10871 10874 10877 10880 10885 10890 10894 10897 10899 10905 10910 10912 10914 10918 10922 10925 10932 10939 10945 10951 10955 10959 10964 10969 10973 10976 10979 10982 10985 10987 10988 10990 10991 10992 10994 10996 10997 10997 10997 10998 10999 11000 11001 11002 11002 11002 11002 11001 11001
10885 10882 10880 10877 10875 10872 10870 10867 10865 10863 10861 10860 10859 10858 10856 10856 10855 10854 10854 10853 10852 10851 10850 10849 10849 10849 10849 10850 10851 10851 10852 10853 10853 10855 10856 10857 10857 10858 10860 10862 10866 10869 10873 10877 10883 10887 10890 10893 10899 10905 10907 10907 10909 10913 10920 10927 10933 10939 10946 10950 10956 10961 10965 10970 10973 10977 10980 10982 10984 10986 10987 10989 10991 10992 10994 10995 10997 10997 10997 10998 10999 11001 11001 11002 11002 11003 11003 11002
10881 10878 10875 10873 10870 10867 10865 10862 10860 10857 10856 10855 10854 10853 10852 10851 10850 10850 10849 10848 10847 10846 10845 10845 10844 10844 10843 10844 10845 10845 10845 10846 10846 10847 10849 10849 10850 10850 10852 10854 10857 10860 10864 10869 10875 10881 10884 10888 10893 10897 10898 10897 10899 10907 10916 10922 10928 10934 10941 10946 10952 10957 10962 10966 10970 10975 10978 10979 10981 10983 10985 10987 10989 10990 10992 10994 10996 10996 10997 10997 10998 11000 11001 11002 11002 11003 11003 11003
10877 10874 10871 10868 10865 10863 10860 10857 10855 10853 10852 10850 10849 10848 10848 10847 10846 10845 10844 10844 10843 10841 10840 10840 10840 10839 10839 10838 10839 10839 10838 10838 10839 10839 10840 10841 10842 10842 10843 10845 10847 10851 10855 10861 10868 10873 10877 10881 10885 10886 10888 10889 10893 10904 10911 10916 10922 10929 10936 10942 10947 10952 10957 10962 10967 10970 10973 10976 10978 10980 10982 10984 10986 10988 10989 10992 10994 10995 10996 10996 10997 10999 11000 11001 11002 11003 11003 11003
10872 10870 10867 10864 10861 10858 10855 10853 10851 10849 10848 10846 10845 10844 10843 10843 10842 10841 10841 10840 10839 10838 10836 10835 10834 10834 10834 10833 10833 10832 10831 10831 10831 10830 10831 10832 10832 10833 10834 10835 10837 10841 10846 10852 10858 10863 10868 10871 10872 10875 10879 10883 10889 10899 10906 10911 10918 10925 10931 10936 10941 10947 10952 10957 10962 10966 10969 10973 10975 10977 10979 10981 10983 10985 10987 10990 10993 10994 10995 10996 10997 10998 10999 11000 11002 11003 11003 11004
10868 10865 10862 10859 10856 10854 10851 10849 10847 10846 10844 10842 10841 10840 10839 10839 10838 10837 10837 10836 10836 10835 10833 10831 10829 10828 10828 10827 10826 10825 10825 10823 10822 10821 10820 10821 10821 10822 10822 10823 10825 10829 10834 10840 10845 10852 10856 10857 10859 10865 10873 10879 10884 10892 10900 10907 10912 10919 10925 10929 10935 10941 10946 10952 10957 10962 10966 10970 10972 10974 10976 10978 10979 10983 10985 10987 10990 10993 10994 10995 10996 10997 10998 10999 11000 11002 11003 11004
10864 10861 10858 10855 10852 10850 10847 10845 10844 10842 10840 10839 10838 10836 10835 10835 10834 10834 10833 10833 10832 10830 10829 10826 10824 10823 10821 10821 10820 10818 10816 10815 10812 10810 10810 10809 10809 10809 10809 10810 10812 10815 10820 10826 10833 10840 10844 10847 10853 10861 10869 10873 10878 10887 10895 10900 10906 10912 10918 10924 10930 10936 10941 10947 10952 10957 10961 10965 10967 10969 10972 10975 10977 10980 10983 10985 10988 10991 10993 10994 10996 10997 10998 10998 10999 11001 11002 11003
10860 10857 10854 10851 10849 10846 10844 10842 10840 10839 10837 10836 10835 10833 10832 10831 10831 10830 10830 10829 10827 10826 10824 10821 10819 10816 10814 10813 10813 10811 10808 10805 10803 10800 10799 10798 10797 10796 10795 10796 10797 10800 10806 10812 10820 10828 10834 10841 10849 10856 10862 10866 10872 10881 10887 10892 10899 10906 10912 10919 10925 10930 10936 10942 10947 10952 10956 10960 10962 10965 10969 10972 10974 10978 10981 10983 10986 10989 10991 10993 10995 10996 10997 10998 10999 11000 11001 11003
10856 10853 10850 10847 10845 10843 10841 10839 10837 10836 10835 10833 10832 10831 10830 10829 10828 10827 10826 10825 10823 10820 10818 10815 10812 10809 10806 10804 10803 10802 10800 10797 10794 10791 10789 10788 10786 10784 10782 10781 10782 10785 10790 10796 10804 10814 10823 10832 10840 10846 10853 10859 10867 10875 10880 10886 10893 10900 10907 10914 10920 10926 10931 10936 10941 10946 10951 10955 10958 10962 10965 10968 10971 10975 10978 10981 10983 10987 10990 10992 10994 10995 10996 10997 10998 10999 11001 11002
10852 10849 10847 10844 10842 10840 10838 10836 10835 10833 10832 10831 10830 10829 10828 10827 10826 10824 10822 10821 10819 10816 10813 10810 10807 10803 10800 10797 10794 10793 10791 10788 10784 10782 10780 10778 10775 10773 10771 10769 10769 10770 10775 10781 10788 10797 10808 10819 10828 10836 10844 10852 10862 10869 10874 10880 10887 10895 10903 10909 10914 10920 10924 10929 10934 10940 10946 10951 10954 10958 10962 10965 10969 10972 10975 10977 10981 10984 10988 10990 10992 10993 10995 10997 10997 10999 11000 11001
10848 10846 10843 10841 10840 10838 10836 10834 10833 10832 10831 10830 10829 10827 10826 10825 10823 10821 10818 10816 10814 10812 10808 10806 10803 10799 10794 10791 10789 10786 10783 10779 10775 10772 10771 10768 10765 10763 10761 10759 10758 10759 10763 10769 10776 10785 10796 10807 10817 10827 10836 10846 10855 10860 10865 10873 10883 10891 10897 10903 10908 10912 10917 10923 10929 10935 10942 10947 10950 10954 10958 10962 10965 10968 10972 10975 10979 10982 10985 10988 10990 10992 10994 10996 10996 10998 10999 11000
10845 10843 10841 10839 10837 10836 10834 10833 10831 10830 10829 10828 10827 10825 10824 10823 10821 10818 10815 10812 10810 10807 10804 10801 10797 10794 10789 10784 10781 10778 10775 10772 10768 10764 10763 10760 10756 10754 10753 10751 10750 10751 10754 10760 10767 10775 10785 10796 10807 10819 10830 10838 10844 10850 10857 10868 10877 10883 10889 10896 10900 10904 10911 10917 10924 10930 10936 10941 10946 10950 10955 10959 10962 10966 10970 10974 10978 10980 10983 10985 10988 10990 10992 10994 10996 10997 10999 10999
10842 10840 10838 10836 10835 10833 10832 10831 10830 10829 10828 10826 10824 10822 10821 10820 10818 10815 10812 10809 10806 10802 10799 10796 10792 10789 10784 10778 10775 10772 10769 10766 10762 10759 10756 10752 10749 10747 10745 10745 10743 10744 10748 10752 10757 10764 10775 10787 10799 10810 10820 10827 10835 10844 10852 10861 10869 10877 10884 10890 10894 10899 10905 10912 10918 10924 10929 10935 10940 10945 10950 10954 10959 10963 10967 10972 10973 10975 10979 10983 10985 10987 10990 10992 10994 10995 10997 10998
10838 10837 10835 10834 10833 10831 10830 10829 10827 10826 10825 10824 10822 10819 10818 10817 10814 10812 10809 10806 10803 10799 10795 10792 10789 10785 10780 10774 10770 10767 10764 10760 10757 10754 10750 10746 10743 10741 10740 10739 10739 10740 10742 10746 10752 10759 10767 10778 10789 10798 10808 10818 10830 10841 10847 10855 10864 10871 10877 10884 10890 10895 10901 10907 10912 10918 10923 10929 10934 10938 10944 10949 10955 10959 10963 10966 10967 10970 10976 10980 10982 10985 10987 10990 10992 10993 10996 10997
10835 10834 10833 10831 10830 10829 10827 10826 10825 10824 10822 10821 10819 10816 10814 10813 10811 10808 10805 10803 10799 10796 10793 10789 10785 10783 10779 10773 10767 10763 10760 10757 10753 10749 10746 10742 10738 10736 10735 10735 10735 10735 10737 10742 10748 10753 10760 10770 10780 10789 10799 10811 10825 10835 10842 10850 10857 10863 10869 10877 10884 10891 10896 10901 10906 10912 10919 10924 10929 10934 10939 10945 10950 10954 10958 10961 10964 10969 10974 10977 10980 10983 10985 10988 10990 10991 10994 10996
10832 10831 10830 10828 10827 10826 10824 10823 10822 10820 10819 10817 10815 10813 10810 10809 10808 10804 10801 10799 10796 10792 10790 10785 10781 10779 10776 10772 10766 10761 10756 10753 10750 10745 10741 10738 10734 10733 10732 10731 10731 10731 10733 10737 10742 10748 10755 10764 10773 10782 10793 10806 10818 10828 10836 10842 10850 10857 10864 10870 10876 10884 10890 10895 10900 10907 10914 10919 10925 10930 10936 10941 10945 10950 10954 10958 10962 10966 10970 10974 10977 10980 10982 10985 10987 10989 10992 10994
10828 10827 10826 10825 10824 10823 10822 10820 10819 10817 10816 10814 10811 10809 10807 10805 10804 10800 10797 10795 10792 10788 10786 10782 10777 10774 10771 10768 10764 10759 10754 10750 10746 10742 10738 10734 10731 10729 10728 10727 10727 10727 10729 10732 10737 10743 10749 10756 10765 10776 10788 10801 10811 10819 10825 10830 10837 10845 10853 10861 10869 10875 10881 10888 10895 10902 10909 10916 10921 10926 10931 10936 10941 10946 10950 10953 10957 10962 10967 10971 10975 10977 10980 10982 10985 10987 10989 10991
10825 10824 10823 10822 10821 10820 10819 10817 10815 10814 10812 10810 10808 10806 10803 10801 10799 10796 10793 10791 10788 10784 10782 10779 10775 10771 10767 10763 10759 10756 10752 10747 10743 10739 10735 10731 10729 10726 10725 10723 10723 10724 10724 10727 10732 10737 10742 10750 10761 10773 10786 10796 10803 10810 10817 10823 10829 10839 10849 10856 10861 10866 10874 10883 10891 10898 10906 10912 10917 10921 10927 10932 10936 10941 10945 10948 10953 10959 10963 10968 10972 10974 10977 10979 10982 10984 10985 10987
10821 10820 10819 10818 10817 10816 10815 10814 10812 10811 10809 10807 10804 10802 10800 10797 10795 10792 10789 10787 10784 10781 10779 10776 10772 10768 10764 10760 10756 10753 10749 10745 10741 10737 10733 10729 10727 10724 10722 10721 10720 10720 10721 10724 10727 10730 10735 10745 10757 10770 10783 10791 10797 10807 10814 10818 10825 10835 10842 10847 10853 10861 10870 10878 10887 10896 10902 10907 10912 10917 10922 10927 10932 10937 10941 10944 10950 10955 10959 10964 10968 10970 10973 10975 10978 10980 10982 10984
10817 10816 10816 10815 10814 10813 10812 10810 10809 10807 10806 10804 10801 10798 10796 10794 10791 10788 10785 10782 10779 10777 10775 10773 10769 10765 10762 10758 10754 10751 10748 10743 10739 10736 10732 10728 10725 10722 10720 10718 10718 10719 10720 10722 10724 10725 10729 10739 10751 10764 10775 10783 10793 10803 10809 10812 10819 10826 10831 10839 10849 10859 10866 10874 10882 10888 10894 10900 10906 10913 10918 10923 10928 10932 10935 10940 10945 10950 10955 10960 10964 10967 10970 10972 10974 10977 10980 10983
10813 10813 10812 10811 10810 10809 10808 10807 10805 10804 10802 10800 10797 10794 10792 10790 10787 10785 10782 10778 10775 10772 10771 10769 10766 10763 10760 10756 10752 10749 10746 10743 10738 10735 10731 10727 10723 10721 10719 10716 10716 10717 10718 10719 10720 10721 10726 10735 10745 10757 10767 10777 10788 10797 10800 10805 10813 10818 10825 10837 10848 10854 10860 10867 10873 10879 10886 10894 10901 10908 10914 10918 10923 10928 10931 10935 10941 10946 10951 10956 10960 10964 10966 10968 10971 10975 10978 10981
10810 10809 10808 10807 10806 10806 10804 10803 10802 10800 10799 10797 10794 10791 10788 10786 10783 10781 10778 10775 10771 10768 10767 10765 10763 10760 10757 10754 10751 10747 10745 10742 10738 10734 10730 10726 10722 10719 10717 10715 10714 10715 10716 10716 10717 10720 10725 10732 10740 10749 10759 10769 10779 10787 10792 10798 10805 10813 10823 10834 10842 10846 10853 10860 10866 10875 10884 10891 10897 10904 10909 10913 10919 10924 10927 10931 10938 10943 10948 10952 10956 10960 10962 10965 10969 10973 10976 10979
10806 10805 10804 10803 10802 10802 10801 10800 10798 10796 10795 10793 10790 10787 10785 10783 10779 10775 10774 10771 10768 10765 10763 10761 10760 10757 10754 10752 10750 10747 10743 10740 10737 10733 10729 10725 10721 10718 10716 10714 10713 10713 10714 10714 10715 10718 10724 10729 10734 10742 10751 10760 10771 10778 10784 10792 10801 10808 10817 10826 10832 10839 10847 10855 10863 10873 10881 10886 10893 10900 10905 10910 10915 10920 10923 10928 10935 10940 10944 10948 10952 10956 10960 10964 10967 10970 10973 10975
10803 10802 10801 10799 10798 10798 10797 10796 10794 10792 10791 10789 10787 10784 10782 10780 10776 10772 10769 10766 10764 10762 10760 10758 10756 10754 10751 10750 10748 10745 10742 10739 10735 10732 10729 10725 10721 10717 10714 10713 10712 10711 10711 10713 10714 10717 10722 10725 10729 10736 10745 10753 10762 10770 10778 10786 10794 10801 10812 10821 10828 10836 10846 10855 10862 10868 10875 10881 10889 10896 10902 10907 10912 10916 10919 10925 10931 10936 10939 10944 10948 10953 10957 10959 10962 10965 10967 10970
10800 10799 10797 10795 10794 10793 10793 10792 10790 10788 10786 10785 10783 10781 10778 10776 10772 10769 10766 10763 10760 10759 10757 10754 10752 10750 10749 10747 10745 10743 10741 10738 10734 10731 10728 10725 10721 10717 10714 10711 10710 10709 10709 10711 10713 10715 10719 10722 10725 10732 10739 10746 10755 10764 10772 10779 10787 10798 10811 10821 10829 10839 10849 10857 10861 10865 10871 10879 10888 10896 10901 10904 10908 10912 10915 10921 10927 10931 10934 10939 10943 10948 10951 10954 10957 10960 10963 10966
10796 10795 10793 10791 10790 10790 10789 10788 10785 10784 10782 10780 10779 10777 10774 10771 10768 10765 10763 10760 10757 10756 10754 10752 10749 10747 10745 10744 10742 10741 10739 10736 10732 10729 10726 10724 10721 10717 10714 10711 10709 10708 10708 10709 10711 10713 10716 10719 10724 10728 10733 10740 10750 10760 10767 10775 10784 10797 10809 10817 10826 10836 10845 10853 10858 10865 10873 10880 10888 10894 10898 10901 10904 10908 10912 10916 10921 10926 10929 10934 10939 10944 10947 10950 10953 10957 10960 10963
10792 10791 10789 10786 10785 10786 10785 10783 10781 10779 10777 10776 10774 10773 10770 10767 10763 10761 10759 10756 10754 10753 10751 10749 10746 10744 10742 10740 10739 10738 10736 10734 10731 10728 10725 10723 10720 10717 10713 10710 10708 10706 10707 10708 10709 10710 10713 10716 10721 10725 10728 10736 10746 10754 10761 10771 10781 10792 10801 10809 10819 10829 10838 10845 10852 10861 10869 10876 10883 10890 10894 10897 10900 10904 10908 10912 10917 10923 10927 10931 10936 10940 10942 10946 10949 10953 10957 10960
10787 10786 10783 10781 10781 10781 10780 10778 10776 10774 10772 10770 10769 10768 10766 10763 10760 10757 10756 10753 10751 10749 10748 10746 10744 10741 10739 10737 10737 10736 10734 10732 10729 10727 10724 10722 10719 10716 10713 10710 10707 10705 10705 10706 10706 10708 10710 10713 10717 10722 10727 10735 10742 10749 10757 10767 10778 10787 10796 10804 10813 10822 10829 10836 10844 10854 10862 10869 10877 10883 10888 10892 10896 10900 10904 10908 10913 10919 10923 10927 10932 10935 10938 10942 10946 10950 10953 10957
10782 10780 10778 10776 10776 10775 10774 10773 10771 10769 10767 10765 10764 10764 10763 10760 10756 10754 10753 10750 10748 10747 10746 10744 10741 10739 10736 10735 10735 10733 10731 10730 10727 10725 10723 10720 10717 10715 10712 10709 10707 10704 10703 10704 10704 10706 10708 10710 10713 10718 10725 10734 10741 10748 10758 10768 10776 10785 10793 10800 10808 10815 10821 10829 10838 10847 10855 10863 10870 10876 10883 10888 10891 10896 10900 10903 10909 10915 10918 10922 10926 10929 10933 10937 10942 10945 10949 10953
10778 10775 10773 10771 10770 10769 10769 10767 10765 10763 10762 10760 10759 10759 10758 10755 10753 10752 10750 10747 10746 10745 10744 10742 10739 10736 10734 10734 10732 10730 10728 10727 10725 10723 10721 10719 10716 10713 10711 10708 10706 10703 10702 10702 10703 10703 10705 10707 10710 10715 10721 10730 10738 10747 10757 10767 10775 10782 10787 10795 10803 10810 10816 10825 10833 10840 10849 10858 10865 10871 10878 10882 10886 10891 10896 10898 10903 10909 10914 10918 10921 10925 10929 10933 10937 10941 10945 10949
10773 10771 10769 10767 10764 10763 10763 10762 10759 10758 10757 10755 10753 10753 10752 10751 10750 10749 10747 10744 10742 10741 10740 10739 10737 10734 10731 10731 10730 10727 10726 10725 10723 10720 10719 10717 10715 10712 10709 10707 10705 10702 10700 10700 10700 10701 10703 10705 10708 10712 10718 10726 10734 10744 10753 10762 10771 10776 10782 10790 10799 10806 10814 10822 10829 10835 10844 10850 10856 10865 10872 10876 10881 10887 10891 10893 10897 10903 10909 10913 10917 10921 10925 10930 10933 10937 10941 10945
10767 10765 10764 10762 10759 10757 10757 10757 10754 10753 10752 10751 10749 10747 10747 10746 10746 10745 10743 10741 10739 10738 10737 10736 10734 10732 10729 10728 10727 10725 10724 10722 10721 10718 10717 10715 10714 10711 10708 10705 10703 10701 10699 10698 10698 10699 10701 10703 10705 10709 10715 10722 10730 10738 10747 10756 10764 10770 10778 10787 10795 10802 10810 10817 10823 10830 10836 10841 10849 10860 10866 10871 10877 10882 10886 10888 10891 10897 10903 10907 10912 10917 10921 10926 10930 10933 10937 10941
10761 10760 10758 10756 10753 10751 10751 10750 10749 10747 10746 10746 10744 10742 10742 10742 10742 10741 10740 10738 10735 10733 10732 10732 10732 10729 10726 10725 10724 10723 10721 10720 10719 10717 10714 10713 10711 10710 10708 10704 10701 10699 10697 10696 10696 10697 10699 10701 10703 10707 10712 10717 10725 10734 10742 10751 10757 10764 10773 10783 10791 10798 10805 10812 10817 10823 10828 10835 10845 10854 10858 10863 10870 10875 10880 10882 10885 10890 10897 10902 10906 10911 10916 10921 10925 10929 10933 10936
10754 10753 10752 10750 10748 10745 10744 10743 10742 10740 10740 10740 10738 10738 10738 10738 10738 10738 10737 10735 10732 10730 10728 10729 10729 10727 10724 10722 10721 10720 10719 10717 10716 10714 10712 10710 10708 10707 10705 10703 10700 10697 10695 10694 10693 10694 10696 10698 10700 10704 10708 10713 10721 10729 10737 10744 10750 10757 10766 10774 10783 10791 10799 10806 10812 10817 10824 10833 10841 10846 10851 10858 10864 10869 10873 10877 10879 10884 10891 10897 10901 10905 10910 10915 10920 10924 10928 10931
10747 10746 10745 10744 10742 10739 10738 10737 10736 10735 10735 10735 10734 10734 10734 10734 10734 10734 10733 10732 10729 10727 10726 10725 10725 10724 10722 10720 10718 10718 10716 10715 10713 10712 10710 10708 10706 10704 10703 10701 10699 10696 10693 10691 10691 10691 10692 10694 10697 10700 10704 10710 10716 10724 10731 10737 10744 10752 10760 10767 10775 10784 10791 10799 10806 10813 10821 10830 10836 10842 10849 10855 10859 10864 10868 10872 10875 10879 10884 10890 10895 10899 10904 10909 10914 10919 10922 10926